RH
93 92 90 93 95 93 91 88 86 74 59 38 26 21 20 21 14 24 16 18 20 19 14 17 17 14 13 11 10 9 14 14 9 8 10 10 10 8 9 11 13 12 22 26 36
78 77 77 93 95 98 99 94 91 88 81 58 36 22 20 19 32 22 17 17 16 14 16 14 15 13 13 12 11 12 15 12 8 8 9 10 10 9 10 12 13 17 22 32 34
68 64 64 65 78 82 82 89 93 91 92 82 51 29 19 22 30 14 18 17 16 13 16 15 11 11 13 11 11 12 14 12 10 9 9 10 10 8 10 11 9 15 19 29 31
68 61 54 52 56 62 69 70 84 95 90 93 70 40 22 33 18 19 16 16 22 20 25 14 13 13 14 13 10 13 11 11 10 8 9 10 9 9 9 9 7 8 16 26 29
48 44 48 48 49 47 50 56 60 87 99 89 81 48 39 24 16 15 15 17 21 22 17 13 14 14 15 12 10 11 10 10 9 9 10 10 10 10 10 8 7 8 17 23 25
52 50 52 50 48 46 42 41 49 60 88 94 85 54 47 38 13 12 15 15 16 16 15 13 11 11 13 13 13 11 10 10 10 10 10 11 11 10 10 9 9 9 10 13 22
55 56 54 55 52 46 47 45 44 48 69 93 87 68 49 41 19 14 16 17 14 17 17 14 12 13 14 16 13 12 14 12 11 10 10 9 12 12 9 8 9 9 10 11 11
65 58 54 53 50 44 39 41 43 46 57 87 90 72 58 36 28 28 23 16 16 16 17 18 18 18 17 15 16 16 15 17 12 10 9 11 15 10 8 9 8 9 10 11 12
76 74 69 62 49 43 36 42 75 69 61 93 85 70 57 34 34 28 22 16 12 12 14 16 18 22 18 21 21 16 20 17 13 9 9 10 14 10 8 8 9 9 9 10 12
79 77 78 74 61 39 32 58 74 97 95 90 78 64 47 39 27 26 25 23 14 11 14 15 20 24 21 20 24 20 17 15 15 10 9 10 12 11 10 9 10 10 9 10 10
74 76 79 80 71 55 56 50 87 82 87 54 54 50 26 30 27 24 21 18 16 13 16 16 24 25 19 17 16 14 14 14 10 8 10 10 13 11 10 10 11 11 10 11 12
79 79 77 70 68 64 63 51 58 72 55 54 52 58 52 46 49 27 22 23 21 20 13 15 23 18 14 12 13 14 16 16 13 10 10 9 10 10 10 11 10 10 11 11 12
80 80 81 71 67 69 66 49 58 54 44 24 29 41 48 48 52 39 21 21 24 24 17 16 14 13 14 14 14 14 16 17 16 13 12 12 12 11 9 10 10 10 10 10 11
78 80 82 77 74 58 50 44 41 42 68 27 22 28 32 40 53 36 30 24 24 24 20 16 10 11 12 15 14 17 12 12 14 15 21 14 18 12 11 10 10 11 12 12 11
72 76 80 74 80 50 44 41 47 62 66 14 16 22 26 46 25 38 34 31 32 29 20 21 19 15 13 12 11 15 13 14 14 16 18 17 20 14 10 11 10 10 12 12 12
67 70 77 90 88 71 50 45 56 78 73 16 17 27 32 38 40 31 38 33 27 29 27 23 17 17 15 11 10 10 12 14 16 16 26 20 20 16 13 12 10 8 9 11 11
74 77 80 80 65 64 59 52 90 92 22 14 19 26 32 33 32 33 35 42 53 52 45 33 25 19 20 24 17 12 17 26 31 31 31 18 19 17 14 12 9 8 9 11 12
77 79 82 77 79 71 73 87 99 45 30 10 11 13 18 19 26 25 32 35 46 40 39 41 46 27 19 22 24 22 18 31 43 38 32 20 23 16 12 10 8 8 8 13 17
81 85 84 73 78 87 93 95 78 45 28 20 17 18 16 14 18 21 26 31 27 37 57 43 38 21 21 21 22 27 29 18 32 37 42 28 19 13 12 11 10 9 10 18 20
88 77 75 72 74 93 98 91 62 34 25 21 24 16 18 14 13 13 20 30 34 31 27 41 48 26 22 20 23 28 21 32 36 79 76 44 30 21 15 12 9 9 13 15 17
96 96 68 70 83 96 96 84 56 38 30 28 25 23 18 17 15 15 14 12 14 20 21 28 42 55 29 27 30 31 34 27 40 65 90 76 49 25 21 17 14 12 12 16 16
84 98 75 73 99 98 95 85 63 46 30 37 32 28 27 20 19 18 20 17 20 28 40 42 58 59 65 32 23 25 30 29 46 61 58 70 48 22 24 22 20 20 16 16 18
95 94 77 81 97 97 85 75 79 67 48 40 37 30 28 31 34 24 22 15 16 27 45 52 79 96 60 47 34 36 30 31 55 37 48 67 56 27 25 22 19 19 19 18 22
98 100 98 94 82 82 90 90 92 57 56 45 41 32 35 38 30 33 27 20 20 20 36 49 87 99 96 67 52 51 34 28 41 66 47 45 41 32 26 22 20 23 25 25 25
98 100 82 99 97 93 70 66 75 71 50 47 51 46 45 56 42 40 28 26 22 23 26 32 54 54 56 62 52 40 40 39 33 41 51 39 36 32 26 24 22 19 23 24 29
91 100 97 77 59 87 84 76 71 60 50 50 56 46 44 51 45 51 36 34 37 28 33 33 56 57 81 56 52 61 46 31 29 34 32 30 31 23 21 20 20 19 18 23 26
92 94 91 70 72 75 86 74 68 51 47 40 40 44 51 45 36 36 37 38 39 49 71 67 64 75 92 55 84 88 49 45 30 23 35 46 33 24 24 22 21 20 19 19 22
Wind_Speed
0 1 3 3 5 8 9 7 7 9 12 12 13 14 17 20 25 20 16 6 4 6 7 11 12 12 15 12 15 10 10 14 13 5 6 10 4 5 8 2 7 5 14 22 26
2 3 3 5 5 5 6 8 9 8 12 13 13 13 17 18 23 22 11 11 12 12 10 12 10 11 10 13 9 9 10 15 13 13 7 8 4 6 5 8 6 10 12 19 24
1 3 6 6 6 5 7 7 10 10 10 13 13 13 14 17 11 3 3 5 13 15 17 18 15 12 12 14 13 12 13 15 12 7 8 6 6 11 7 13 13 15 16 18 20
4 4 6 8 8 7 8 9 10 11 10 11 12 13 13 10 4 4 2 9 5 6 11 16 13 13 14 14 14 14 16 13 13 6 5 9 8 12 10 13 9 7 20 18 17
5 5 5 6 8 9 10 10 11 11 11 9 12 11 7 8 12 5 5 8 7 6 13 14 15 14 16 15 16 15 13 16 9 11 8 10 13 13 12 14 13 4 13 16 15
3 4 5 5 7 8 9 10 10 11 11 10 9 9 6 13 9 7 5 8 11 8 13 15 14 16 16 20 16 15 11 13 15 12 12 12 13 14 16 15 15 11 9 10 15
2 3 5 6 8 9 10 11 11 10 11 9 7 6 12 20 8 7 4 8 11 9 9 14 15 16 10 14 18 18 18 16 15 16 16 15 18 19 17 17 18 15 12 11 14
3 4 5 6 8 10 10 11 12 12 10 7 7 6 10 8 12 23 24 20 15 15 13 13 11 11 15 14 20 16 16 17 19 20 20 17 20 19 20 20 19 15 15 12 16
4 4 5 7 8 10 11 11 13 11 8 3 4 7 11 3 15 20 17 19 22 17 17 14 8 13 13 15 15 15 17 21 22 21 20 24 20 21 21 16 16 14 15 15 15
5 5 6 7 8 10 12 8 8 3 2 2 5 7 11 11 13 15 16 22 15 14 14 15 8 12 14 15 16 16 19 20 22 20 23 19 20 19 20 12 11 12 12 12 13
6 6 5 8 9 10 13 8 5 6 4 8 3 11 3 3 11 13 12 16 19 15 20 15 12 20 25 21 22 21 21 23 23 21 22 18 19 19 17 17 16 14 13 13 13
7 6 5 7 9 10 10 7 5 1 9 19 23 20 29 14 10 11 13 13 18 24 21 18 23 26 24 22 23 24 25 26 23 25 22 18 21 17 16 17 18 14 15 17 15
8 7 5 6 9 9 7 8 1 5 7 12 21 17 26 16 13 16 13 12 14 22 25 25 29 22 24 23 25 25 25 20 23 21 23 22 24 23 22 20 17 16 15 17 18
9 7 5 5 6 8 8 4 6 4 5 8 9 9 20 18 18 25 24 12 9 18 25 24 27 27 25 26 24 25 23 24 24 20 18 19 20 21 21 23 23 21 20 19 19
9 8 8 12 8 6 4 2 1 3 6 3 16 7 11 22 7 15 32 19 23 19 10 19 24 27 29 28 24 27 20 25 24 20 21 27 17 18 16 21 20 19 25 20 23
11 10 9 10 16 10 4 5 3 3 11 5 6 9 9 19 18 10 10 22 18 23 23 25 25 28 30 23 25 24 24 23 22 17 18 33 18 24 18 19 18 23 20 19 14
12 12 13 14 12 12 7 8 4 8 4 5 10 8 10 11 16 17 15 17 16 18 22 28 30 29 23 25 26 27 23 17 16 17 20 24 20 26 15 17 25 30 19 19 18
12 12 15 20 17 10 9 5 12 6 16 10 2 10 13 13 14 14 16 17 18 24 17 19 22 31 23 30 25 23 23 18 25 20 20 23 24 27 19 20 25 24 18 11 13
11 13 17 21 19 12 7 13 7 11 14 12 15 18 19 19 14 14 18 18 19 24 24 18 32 20 28 28 20 30 24 19 20 20 17 16 22 27 27 28 24 23 9 10 8
11 12 21 22 23 14 9 27 14 17 19 18 18 14 18 20 21 21 17 12 18 20 22 28 27 28 29 20 31 31 20 17 7 10 26 21 30 20 15 18 18 21 14 13 12
9 3 9 25 22 7 16 12 21 27 26 19 20 22 24 24 21 23 23 22 23 19 21 23 21 30 26 30 22 21 23 23 9 14 6 15 18 20 23 22 27 20 18 17 14
4 4 10 27 10 6 17 9 12 22 18 25 26 24 27 25 25 24 25 23 10 15 19 18 10 19 28 31 29 28 25 28 15 24 22 17 17 21 23 23 20 17 9 11 10
3 3 10 24 12 14 8 23 14 20 25 26 29 25 25 27 25 25 25 25 25 15 5 6 5 5 14 19 25 27 28 20 20 20 23 17 19 23 28 27 31 23 13 8 9
2 4 4 8 11 20 19 18 21 24 30 30 29 24 28 26 23 24 27 26 24 24 16 5 7 10 9 18 20 18 27 23 22 17 23 22 27 33 22 22 11 12 8 6 3
4 3 5 6 13 20 23 20 27 27 27 28 27 32 29 25 23 24 26 25 24 25 23 17 21 19 23 28 29 28 27 30 26 24 26 23 28 35 27 23 21 23 10 6 9
5 3 4 11 15 21 23 27 28 28 26 28 29 30 25 26 28 24 25 22 22 21 16 17 21 18 26 24 24 27 31 29 29 24 30 26 27 30 26 18 24 26 15 12 12
10 7 4 12 18 20 20 28 35 28 28 31 29 24 26 32 26 22 20 21 18 15 17 19 15 14 11 18 17 13 23 30 31 28 25 24 28 28 23 29 27 21 21 18 15
Wind_Direction
24 359 7 319 259 264 273 298 308 308 309 310 313 321 320 325 316 311 263 276 216 258 290 281 256 257 251 257 266 276 270 262 265 265 98 105 222 205 297 138 136 167 41 122 141
301 331 336 354 349 311 288 281 289 307 307 311 312 322 320 327 312 287 266 259 269 264 270 256 251 233 253 261 243 217 254 281 357 5 17 76 292 203 234 279 171 104 95 126 147
308 323 325 335 340 331 335 326 300 288 305 308 314 319 321 329 295 79 96 271 269 260 246 270 274 282 266 269 255 248 254 289 330 353 341 307 202 265 243 231 234 185 170 154 165
313 328 331 331 317 323 330 342 330 297 287 308 313 315 321 319 287 92 76 355 328 230 230 247 258 253 252 260 247 255 264 274 296 337 285 278 288 265 236 271 291 332 178 157 175
316 323 329 326 324 327 323 331 327 324 298 299 307 319 343 241 255 269 329 331 307 234 233 238 249 248 255 261 263 263 265 284 273 279 268 280 274 281 280 266 279 159 136 164 185
326 332 308 329 321 328 331 325 315 323 313 288 299 316 261 253 260 267 295 303 286 249 250 243 252 259 278 277 277 280 274 276 278 255 262 245 259 262 256 264 276 254 208 197 192
319 315 327 330 322 327 327 326 322 304 309 290 281 300 261 245 271 280 273 283 277 283 287 263 259 270 267 260 259 261 268 266 256 264 252 248 252 243 256 253 239 243 213 221 234
304 319 326 325 327 324 324 321 314 304 287 289 262 279 257 259 270 257 256 264 261 258 264 278 310 302 270 276 289 268 262 258 253 249 238 240 256 254 242 232 240 226 235 219 223
296 310 316 317 315 319 320 326 316 300 281 233 257 230 267 294 235 247 239 244 244 256 247 255 249 249 258 239 256 252 255 257 256 243 246 218 235 256 264 229 220 218 234 225 227
273 291 301 310 312 315 309 327 326 38 79 179 251 277 248 241 236 234 238 230 232 244 237 231 232 243 226 239 235 234 247 250 250 262 276 228 235 249 266 248 232 246 251 249 233
282 286 296 300 311 316 322 305 216 182 189 234 157 239 279 244 307 251 246 225 224 237 226 214 220 230 225 227 243 263 261 264 264 252 234 248 234 237 239 247 222 225 243 241 244
276 287 310 303 309 313 313 280 55 314 292 223 252 253 264 292 287 267 233 215 204 224 222 229 221 229 236 243 243 240 247 257 272 279 286 277 270 246 238 246 261 242 226 226 226
263 266 273 279 300 309 275 314 287 289 269 268 224 236 225 223 244 250 213 224 229 227 225 221 235 226 241 242 244 249 250 252 257 267 277 279 263 258 255 249 252 265 264 261 265
254 249 238 245 290 261 263 258 250 285 281 263 205 251 216 226 267 227 246 212 209 240 229 237 242 245 240 231 243 249 246 254 258 262 258 261 268 241 242 241 238 234 240 249 253
249 242 225 209 327 246 1 200 240 240 311 157 193 177 175 190 358 191 214 225 232 229 225 231 229 245 245 249 240 243 254 268 273 250 259 255 256 262 264 263 267 242 225 234 233
243 236 224 234 251 257 298 234 221 226 245 238 149 187 175 203 253 281 198 232 258 246 255 254 247 236 244 247 249 264 262 246 254 260 251 252 243 265 247 253 253 245 234 220 238
238 230 225 219 227 227 229 219 218 221 274 221 181 173 204 229 229 229 235 215 221 236 243 249 247 246 250 262 260 246 251 255 237 236 242 251 242 257 243 246 255 248 262 211 221
240 230 229 226 238 234 221 221 223 239 228 298 111 284 241 231 230 243 219 231 226 242 262 240 251 238 234 233 245 249 237 234 246 238 249 242 244 244 253 252 253 258 251 196 199
244 233 226 226 226 226 213 223 224 223 273 270 282 279 272 275 237 247 246 237 243 212 245 249 261 261 229 238 235 250 252 252 273 257 272 271 262 249 241 239 244 254 225 164 183
230 230 230 219 209 208 226 231 219 248 285 293 277 277 278 273 268 258 249 225 245 254 249 246 259 259 272 252 225 233 240 252 226 244 243 255 265 261 265 272 265 269 208 202 200
225 226 229 211 194 212 230 228 240 253 277 278 271 273 275 275 275 272 270 265 250 241 260 253 242 264 267 260 256 233 236 236 193 222 256 247 255 256 275 260 257 273 251 198 196
229 222 219 188 208 220 233 232 248 256 256 244 267 270 274 279 277 274 272 275 274 275 289 311 316 268 247 255 263 263 263 230 217 217 220 230 258 262 283 296 304 300 299 176 177
230 211 238 192 220 227 242 240 241 241 246 249 258 250 263 270 273 273 277 280 291 266 178 312 320 283 287 251 259 259 253 254 284 225 228 225 240 250 254 284 280 285 252 185 169
245 214 191 223 233 229 232 238 239 236 248 253 266 262 263 263 256 264 270 270 279 280 286 175 215 245 257 284 296 282 269 245 228 242 232 231 241 256 249 248 288 334 360 100 157
208 220 201 200 221 229 234 236 243 246 240 242 254 250 255 267 268 266 256 265 261 266 274 272 280 276 291 299 293 268 265 275 243 232 249 231 238 253 244 244 259 268 223 218 203
227 176 232 244 222 222 236 235 245 243 246 243 237 247 255 259 254 260 267 267 278 291 295 283 271 297 287 277 287 295 285 272 270 259 248 250 247 246 253 262 258 271 275 223 218
211 243 272 236 240 242 221 235 243 248 245 248 256 255 245 248 258 271 268 277 286 296 291 300 279 283 274 297 318 305 263 273 272 269 238 260 255 256 259 241 257 254 267 268 245